Погода в Вэйфане

Китай     36°41′36″N   119°06′28″E
темп.,
°C
ветер,
м/с
пор.,
м/с
влажн.,
%
обл.,
%
осадки,
мм/ч
давл.,
гПа
погр.,
м
11 апреля, вс
вс1123:00+12ююв61367100 0.0 1027433
02:00+10ююв5127669 0.0 1027363
05:00+9ююв4108636 0.0 1026264
08:00+13ююв6116511 0.0 1027620
11:00+18ююв81150100 0.0 10251497
14:00+19ююв81048100 0.0 10231503
17:00+17ююв6852100 0.0 10221168
20:00+12юв51085100 0.9 1023489
12 апреля, пн
пн1223:00+11вюв4793100 3.8 1022354
02:00+11в3694100 5.9 1019380
05:00+11св3395100 0.8 1017312
08:00+11ссз1193100 0.8 1016263
11:00+16ссз567015 0.0 1015788
14:00+20ссз574810 0.0 10141577
17:00+17ссв676145 0.0 1013427
20:00+10св368453 0.0 1016257
13 апреля, вт
вт1323:00+9сз119097 0.0 1018139
02:00+10ссз358698 0.0 1019204
05:00+9ссв51188100 0.1 1020550
08:00+10ссв7964100 0.1 1023867
11:00+12св67444 0.0 10231197
14:00+13ссв55350 0.0 10231387
17:00+10св44373 0.0 1023844
20:00+7в344179 0.0 102473
14 апреля, ср
ср1423:00+6ююз34410 0.0 102455
02:00+6ююз47440 0.0 1023110
05:00+6ююз35500 0.0 102266
08:00+12ююз23390 0.0 1022193
11:00+18юз34180 0.0 10221863
14:00+20юз34180 0.0 10192827
17:00+20ю24250 0.0 1016519
20:00+13ююв613415 0.0 1018275
15 апреля, чт
чт1523:00+12ю71642100 0.0 1018448
02:00+11ююз71657100 0.0 1016465
05:00+10ю7166617 0.0 1015382
08:00+12ю81551100 0.0 1014560
11:00+19ююз81036100 0.0 10121121
14:00+22зюз71035100 0.0 10112142
17:00+21ссз6841100 0.1 1010587
20:00+12ссв353537 1.3 101755